User: anonymous   Login
Location: Unspecified
(0.0000°N, 0.0000°E)
Time: 08:07:59
(UTC+00:00)
Language:

CORVUS BC1 - Orbit

View from above orbital plane
View from above orbital plane
View from above satellite
View from above satellite

Ground track
Ground track

The orbit data is extracted from the following two-line orbital elements,

1 42847U 17042Y   17347.79884013 +.00000151 +00000-0 +20278-4 0  9991
2 42847 097.6083 252.2352 0010847 092.9357 267.3104 14.91827516022726
Epoch (UTC): 13 December 2017 19:10:19
Eccentricity: 0.0010847
inclination: 97.6083°
perigee height: 584 km
apogee height: 600 km
right ascension of ascending node: 252.2352°
argument of perigee: 92.9357°
revolutions per day: 14.91827516
mean anomaly at epoch: 267.3104°
orbit number at epoch: 2272

The dashed part of the orbit path shows where the satellite is in the earth's shadow,  

DLR